TimeCST,TemperatureF,Dew PointF,Humidity,Sea Level PressureIn,VisibilityMPH,Wind Direction,Wind SpeedMPH,Gust SpeedMPH,PrecipitationIn,Events,Conditions,WindDirDegrees,DateUTC
12:15 AM,22.1,17.6,83,30.48,10.0,ESE,3.5,-,N/A,,Clear,110,2014-01-08 06:15:00
12:35 AM,21.6,18.3,87,30.48,10.0,Calm,Calm,-,N/A,,Clear,0,2014-01-08 06:35:00
12:55 AM,21.0,18.1,89,30.48,10.0,Calm,Calm,-,N/A,,Clear,0,2014-01-08 06:55:00
1:15 AM,21.2,18.3,89,30.48,10.0,Calm,Calm,-,N/A,,Clear,0,2014-01-08 07:15:00
1:35 AM,20.8,18.3,90,30.48,10.0,Calm,Calm,-,N/A,,Clear,0,2014-01-08 07:35:00
1:55 AM,21.0,18.0,88,30.47,10.0,Calm,Calm,-,N/A,,Clear,0,2014-01-08 07:55:00
2:15 AM,21.2,17.8,87,30.46,10.0,Calm,Calm,-,N/A,,Clear,0,2014-01-08 08:15:00
2:35 AM,21.0,18.1,89,30.46,10.0,Calm,Calm,-,N/A,,Clear,0,2014-01-08 08:35:00
2:55 AM,21.0,18.1,89,30.45,10.0,Calm,Calm,-,N/A,,Clear,0,2014-01-08 08:55:00
3:15 AM,21.4,18.0,87,30.46,10.0,Calm,Calm,-,N/A,,Clear,0,2014-01-08 09:15:00
3:35 AM,21.6,18.5,88,30.46,10.0,Calm,Calm,-,N/A,,Clear,0,2014-01-08 09:35:00
3:55 AM,21.0,18.0,88,30.45,10.0,Calm,Calm,-,N/A,,Clear,0,2014-01-08 09:55:00
4:15 AM,20.7,18.3,91,30.45,10.0,Calm,Calm,-,N/A,,Clear,0,2014-01-08 10:15:00
4:35 AM,21.0,18.3,89,30.44,10.0,Calm,Calm,-,N/A,,Clear,0,2014-01-08 10:35:00
4:55 AM,20.8,18.1,89,30.44,10.0,Calm,Calm,-,N/A,,Clear,0,2014-01-08 10:55:00
5:15 AM,22.3,17.4,82,30.43,10.0,East,3.5,-,N/A,,Clear,100,2014-01-08 11:15:00
5:35 AM,23.5,17.8,79,30.42,10.0,East,4.6,-,N/A,,Clear,90,2014-01-08 11:35:00
5:55 AM,23.9,18.3,79,30.43,10.0,Calm,Calm,-,N/A,,Clear,0,2014-01-08 11:55:00
6:15 AM,23.7,18.5,80,30.42,10.0,Calm,Calm,-,N/A,,Clear,0,2014-01-08 12:15:00
6:35 AM,24.6,19.0,79,30.42,10.0,East,4.6,-,N/A,,Clear,100,2014-01-08 12:35:00
6:55 AM,25.3,18.9,76,30.43,10.0,ESE,4.6,-,N/A,,Clear,120,2014-01-08 12:55:00
7:15 AM,25.7,19.0,76,30.43,10.0,East,8.1,-,N/A,,Scattered Clouds,100,2014-01-08 13:15:00
7:35 AM,27.0,18.5,70,30.43,10.0,East,4.6,-,N/A,,Scattered Clouds,100,2014-01-08 13:35:00
7:55 AM,28.4,19.4,69,30.44,10.0,ESE,8.1,-,N/A,,Clear,110,2014-01-08 13:55:00
8:15 AM,29.7,19.8,67,30.43,10.0,East,9.2,-,N/A,,Clear,100,2014-01-08 14:15:00
8:35 AM,31.6,20.5,63,30.44,10.0,East,5.8,-,N/A,,Clear,100,2014-01-08 14:35:00
8:55 AM,32.5,21.7,64,30.45,10.0,ESE,10.4,-,N/A,,Clear,110,2014-01-08 14:55:00
9:15 AM,33.8,21.6,61,30.45,10.0,ESE,12.7,-,N/A,,Mostly Cloudy,110,2014-01-08 15:15:00
9:35 AM,36.0,22.5,58,30.45,10.0,ESE,8.1,-,N/A,,Overcast,110,2014-01-08 15:35:00
9:55 AM,36.7,22.6,57,30.46,10.0,East,9.2,-,N/A,,Overcast,100,2014-01-08 15:55:00
10:15 AM,37.6,23.0,56,30.46,10.0,ESE,10.4,-,N/A,,Overcast,110,2014-01-08 16:15:00
10:35 AM,39.0,24.1,55,30.44,10.0,East,9.2,-,N/A,,Overcast,100,2014-01-08 16:35:00
10:55 AM,39.4,24.6,56,30.43,10.0,SE,9.2,-,N/A,,Overcast,130,2014-01-08 16:55:00
11:10 AM,40.5,26.1,57,30.42,10.0,SE,9.2,-,N/A,,Overcast,130,2014-01-08 17:10:00
11:35 AM,41.5,26.1,54,30.40,10.0,SE,9.2,-,N/A,,Overcast,130,2014-01-08 17:35:00
11:55 AM,42.1,25.2,51,30.39,10.0,ESE,8.1,-,N/A,,Overcast,120,2014-01-08 17:55:00
12:15 PM,41.9,24.8,51,30.37,10.0,ESE,10.4,-,N/A,,Overcast,120,2014-01-08 18:15:00
12:35 PM,43.0,25.5,50,30.37,10.0,East,4.6,-,N/A,,Overcast,80,2014-01-08 18:35:00
12:55 PM,42.8,25.0,49,30.36,10.0,East,4.6,-,N/A,,Overcast,90,2014-01-08 18:55:00
1:15 PM,43.9,25.2,48,30.35,10.0,ESE,8.1,-,N/A,,Overcast,110,2014-01-08 19:15:00
1:35 PM,44.2,24.6,46,30.34,10.0,ESE,6.9,-,N/A,,Overcast,120,2014-01-08 19:35:00
1:55 PM,45.3,25.5,46,30.34,10.0,SE,9.2,-,N/A,,Overcast,130,2014-01-08 19:55:00
2:15 PM,45.7,25.9,46,30.34,10.0,ESE,8.1,-,N/A,,Overcast,120,2014-01-08 20:15:00
2:35 PM,45.5,26.1,47,30.34,10.0,SE,6.9,-,N/A,,Overcast,140,2014-01-08 20:35:00
2:55 PM,45.9,27.0,48,30.32,10.0,ESE,9.2,-,N/A,,Overcast,120,2014-01-08 20:55:00
3:15 PM,46.6,27.3,47,30.32,10.0,ESE,8.1,-,N/A,,Overcast,110,2014-01-08 21:15:00
3:35 PM,46.6,27.5,47,30.30,10.0,ESE,10.4,-,N/A,,Overcast,110,2014-01-08 21:35:00
3:55 PM,47.5,27.7,46,30.31,10.0,ESE,5.8,-,N/A,,Overcast,120,2014-01-08 21:55:00
4:15 PM,48.0,27.7,45,30.32,10.0,SE,4.6,-,N/A,,Mostly Cloudy,130,2014-01-08 22:15:00
4:35 PM,47.7,27.9,46,30.31,10.0,SE,9.2,-,N/A,,Mostly Cloudy,130,2014-01-08 22:35:00
4:55 PM,46.6,27.7,48,30.32,10.0,SE,5.8,-,N/A,,Scattered Clouds,130,2014-01-08 22:55:00
5:15 PM,45.5,27.1,49,30.31,10.0,SE,6.9,-,N/A,,Scattered Clouds,130,2014-01-08 23:15:00
5:35 PM,44.8,26.2,48,30.31,10.0,SE,4.6,-,N/A,,Scattered Clouds,130,2014-01-08 23:35:00
5:55 PM,44.1,26.1,49,30.31,10.0,ESE,4.6,-,N/A,,Scattered Clouds,120,2014-01-08 23:55:00
6:15 PM,43.7,25.9,50,30.30,10.0,ESE,5.8,-,N/A,,Clear,120,2014-01-09 00:15:00
6:35 PM,42.6,26.6,53,30.30,10.0,SE,4.6,-,N/A,,Clear,140,2014-01-09 00:35:00
6:55 PM,41.7,26.6,55,30.30,10.0,SE,4.6,-,N/A,,Clear,130,2014-01-09 00:55:00
7:15 PM,41.9,26.6,55,30.31,10.0,East,3.5,-,N/A,,Clear,100,2014-01-09 01:15:00
7:35 PM,43.2,28.0,55,30.31,10.0,East,4.6,-,N/A,,Mostly Cloudy,100,2014-01-09 01:35:00
7:55 PM,43.9,30.0,58,30.32,10.0,ESE,6.9,-,N/A,,Overcast,110,2014-01-09 01:55:00
8:15 PM,43.9,31.1,61,30.32,10.0,ESE,6.9,-,N/A,,Overcast,110,2014-01-09 02:15:00
8:35 PM,43.5,31.8,63,30.31,10.0,ESE,10.4,-,N/A,,Overcast,110,2014-01-09 02:35:00
8:55 PM,43.0,32.0,65,30.32,10.0,ESE,5.8,-,N/A,,Overcast,110,2014-01-09 02:55:00
9:15 PM,42.6,32.5,68,30.33,10.0,East,6.9,-,N/A,,Overcast,100,2014-01-09 03:15:00
9:35 PM,42.1,33.1,70,30.33,10.0,ESE,5.8,-,N/A,,Overcast,110,2014-01-09 03:35:00
9:55 PM,42.1,34.0,73,30.34,10.0,ESE,6.9,-,N/A,,Overcast,120,2014-01-09 03:55:00
10:15 PM,41.7,34.7,76,30.33,10.0,ESE,6.9,-,N/A,,Overcast,110,2014-01-09 04:15:00
10:35 PM,41.4,34.9,78,30.34,10.0,ESE,5.8,-,N/A,,Mostly Cloudy,110,2014-01-09 04:35:00
10:55 PM,40.6,35.1,80,30.32,10.0,ESE,6.9,-,N/A,,Scattered Clouds,120,2014-01-09 04:55:00
11:15 PM,41.0,35.6,81,30.32,10.0,ESE,8.1,-,N/A,,Scattered Clouds,120,2014-01-09 05:15:00
11:35 PM,41.0,35.6,81,30.33,10.0,East,3.5,-,N/A,,Overcast,100,2014-01-09 05:35:00
11:55 PM,41.0,35.4,81,30.31,10.0,ESE,9.2,-,N/A,,Mostly Cloudy,120,2014-01-09 05:55:00